Location: Chefe Valiua
(16.5342°S, 37.2214°E)
Time: 01:50:15
(UTC+00:00)

CZ-2C R/B - Pass Details

Date: 19 January 2021
Orbit: 785 x 870 km, 98.2° (Epoch: 07 March)

Event Time Altitude Azimuth Distance (km) Brightness Sun altitude
Rises 16:32:56 0° 2° (N) 3,437 5.6 -5.7°
Reaches altitude 10° 16:35:22 10° 357° (N) 2,506 5.0 -6.3°
Maximum altitude 16:40:48 53° 281° (W) 1,063 3.7 -7.5°
Drops below altitude 10° 16:46:15 10° 205° (SSW) 2,509 5.9 -8.7°
Sets 16:48:41 0° 200° (SSW) 3,442 6.6 -9.2°
